This demonstration page uses our WeatherBlox Daily Observations layout. Learn more.

Left ArrowRight Arrow

36.19886, -115.1175

Hourly Observations for May 9, 2020

Temp ( °F °C ) Dew Point ( °F °C ) Humidity (%) Winds ( mph kmh ) Pressure ( in mb ) Visibility ( mi km ) Precip ( " mm )
12:53 am 00:53 Clear 76 24.4 28 -2.2 17 17 WNW 5 7 29.84 1010 10 16 N/A
1:53 am 01:53 Clear 74 23.3 28 -2.2 18 18 W 3 6 29.84 1010 10 16 N/A
2:53 am 02:53 Clear 74 23.3 27 -2.8 17 17 N N/A 29.84 1010 10 16 N/A
3:53 am 03:53 Clear 71 21.7 27 -2.8 19 19 NW 6 9 29.84 1011 10 16 N/A
4:53 am 04:53 Clear 70 21.1 28 -2.2 21 21 N 5 7 29.85 1011 10 16 N/A
5:53 am 05:53 Sunny 72 22.2 23 -5 16 16 NNW 7 11 29.87 1012 10 16 N/A
6:53 am 06:53 Sunny 73 22.8 27 -2.8 18 18 N N/A 29.90 1012 10 16 N/A
7:53 am 07:53 Sunny 77 25 29 -1.7 17 17 SW 3 6 29.92 1013 10 16 N/A
8:53 am 08:53 Sunny 82 27.8 25 -3.9 12 12 VRB 5 7 29.92 1013 10 16 N/A
9:53 am 09:53 Sunny 85 29.4 22 -5.6 10 10 S 5 7 29.93 1014 10 16 N/A
10:53 am 10:53 Sunny 89 31.7 20 -6.7 8 8 SE 8 13 29.92 1013 10 16 N/A
11:53 am 11:53 Sunny 92 33.3 22 -5.6 8 8 E 10 17 29.91 1013 10 16 N/A
12:53 pm 12:53 Sunny 92 33.3 23 -5 8 8 N N/A 29.88 1012 10 16 N/A
1:53 pm 13:53 Sunny 95 35 23 -5 7 7 SE 5 7 29.85 1011 10 16 N/A
2:53 pm 14:53 Sunny 97 36.1 22 -5.6 7 7 ENE 7 11 29.82 1010 10 16 N/A
3:53 pm 15:53 Sunny 99 37.2 21 -6.1 6 6 ESE 12 19 29.80 1009 10 16 N/A
4:51 pm 16:51 Sunny 100 38 16 -9 4 4 WSW 12 19 29.60 1002 10 16 N/A
4:53 pm 16:53 Sunny 101 38.3 16 -8.9 4 4 WSW 15 24 29.78 1008 10 16 N/A
5:53 pm 17:53 Sunny 99 37.2 17 -8.3 5 5 WSW 17 28 29.77 1008 10 16 N/A
6:53 pm 18:53 Sunny 97 36.1 18 -7.8 6 6 WSW 12 19 29.77 1008 10 16 N/A
7:53 pm 19:53 Clear 95 35 21 -6.1 7 7 WSW 8 13 29.78 1008 10 16 N/A
8:53 pm 20:53 Clear 93 33.9 23 -5 8 8 SW 6 9 29.79 1009 10 16 N/A
9:53 pm 21:53 Clear 89 31.7 24 -4.4 9 9 WSW 5 7 29.80 1009 10 16 N/A
10:53 pm 22:53 Clear 84 28.9 26 -3.3 12 12 NNW 3 6 29.80 1009 10 16 N/A
11:53 pm 23:53 Clear 82 27.8 26 -3.3 13 13 NW 7 11 29.80 1009 10 16 N/A

Powered by AerisWeather